User: anonymous   Login
Location: Charleston
(38.3500°N, 81.6330°W)
Time: 00:04:09
(UTC-04:00)
Language:

Cosmos 1812 Rocket - Orbit

View from above orbital plane
View from above orbital plane
View from above satellite
View from above satellite

Ground track
Ground track

The orbit data is extracted from the following two-line orbital elements,

1 17296U 87003B   16209.85523364  .00000095  00000-0  87607-5 0  9994
2 17296  82.5318 328.1391 0018405 205.8294 154.2003 14.83131426595040
Epoch (UTC): 27 July 2016 20:31:32
Eccentricity: 0.0018405
inclination: 82.5318°
perigee height: 606 km
apogee height: 632 km
right ascension of ascending node: 328.1391°
argument of perigee: 205.8294°
revolutions per day: 14.83131426
mean anomaly at epoch: 154.2003°
orbit number at epoch: 59504

The dashed part of the orbit path shows where the satellite is in the earth's shadow,  

DLR